Weather in Sarpi

Georgia     41°31′18″N   41°33′04″E
temp.,
°C
wind,
m/s
gust,
m/s
humid.,
%
clouds,
%
prec.,
mm/h
press.,
hPa
HPBL,
m
5 march, fri
fri501:00+5ese22740 0.0 1024238
04:00+5se22660 0.0 1024115
07:00+5se33540 0.0 1024111
10:00+7ese22480 0.0 1023170
13:00+9n22540 0.0 1022237
16:00+9nne12510 0.0 1021221
19:00+9ne11620 0.0 102424
22:00+9se44540 0.0 102646
6 march, sat
sat601:00+8se66540 0.0 102684
04:00+8se78510 0.0 1026117
07:00+8se910480 0.0 1025155
10:00+10se89450 0.0 1024164
13:00+13sse45450 0.0 102297
16:00+13sw12523 0.0 1020133
19:00+11ssw555457 0.0 102169
22:00+10ssw456479 0.0 102290
7 march, sun
sun701:00+9ssw4569100 0.0 1023101
04:00+8sw6890100 2.7 1022469
07:00+7wsw4595100 9.8 1022368
10:00+6wnw5694100 22.2 1023517
13:00+4wsw4594100 9.4 1024459
16:00+3w3395100 12.6 1025313
19:00+3wsw2292100 0.8 1026253
22:00+3e118594 0.8 1026316
8 march, mon
mon801:00+3ne337968 0.0 1025390
04:00+3e227381 0.0 1023295
07:00+3e226899 0.0 1022269
10:00+4nnw016699 0.0 1021362
13:00+4nw2276100 0.2 1018379
16:00+4w228098 0.3 1017413
19:00+4n117969 0.0 1018297
22:00+4e227535 0.0 1020213
9 march, tue
tue901:00+4ese227123 0.0 1020149
04:00+5ese226539 0.0 1020121
07:00+5se33630 0.0 1020124
10:00+7ese12580 0.0 1020145
13:00+9nne33615 0.0 1019315
16:00+8nnw226243 0.0 1019251
19:00+7wnw0165100 0.0 1020100
22:00+7ene2267100 0.0 1022137